Regional Weather Roundup
Issued by NWS Green Bay, WI

Home | Current Version | Previous Version | Graphics & Text | Print | Product List | Glossary Off
Versions: 1 2 3 4 5 6 7 8 9 10 11 12 13 14 15 16 17 18 19 20 21 22 23 24 25 26 27 28 29 30 31 32 33 34 35 36 37 38 39 40 41 42 43 44 45 46 47 48 49 50

000
ASUS43 KGRB 260600
RWRGRB

NORTH-CENTRAL AND NORTHEAST WISCONSIN REGIONAL WEATHER ROUNDUP
NATIONAL WEATHER SERVICE GREEN BAY WI
100 AM CDT TUE MAY 26 2015

WIZ005-009-010>012-018-019-260700-
NORTH CENTRAL WISCONSIN

CITY           SKY/WX    TMP DP  RH WIND       PRES   REMARKS
IRONWOOD       CLOUDY    54  54 100 CALM      29.76R VSB 1/4
MANITOWISH WTR NOT AVBL
ARBOR VITAE    NOT AVBL
EAGLE RIVER    NOT AVBL
LAND O LAKES   NOT AVBL
RHINELANDER    MOCLDY    61  59  93 SW5       29.82S
PHILLIPS       NOT AVBL
ANTIGO         NOT AVBL
TOMAHAWK       NOT AVBL
MERRILL        NOT AVBL
$$

WIZ013-073-260700-
NORTHEAST WISCONSIN

CITY           SKY/WX    TMP DP  RH WIND       PRES   REMARKS
IRON MOUNTAIN  CLEAR     60  58  92 S6        29.80S
MARINETTE      CLOUDY    63  57  82 SW8       29.83R
$$

WIZ017-030-035>037-045-260700-
CENTRAL WISCONSIN

CITY           SKY/WX    TMP DP  RH WIND       PRES   REMARKS
MEDFORD        NOT AVBL
WAUSAU         CLEAR     61  60  97 S6        29.82S
MOSINEE        NOT AVBL
MARSHFIELD     PTCLDY    62  58  86 S7        29.82F
WISC RAPIDS    CLEAR     64  60  87 S5        29.84S
STEVENS POINT  NOT AVBL
WAUPACA        NOT AVBL
SHAWANO        NOT AVBL
CLINTONVILLE   NOT AVBL
$$

WIZ038-039-048-051-260700-
FOX VALLEY

CITY           SKY/WX    TMP DP  RH WIND       PRES   REMARKS
NWS GREEN BAY  MOCLDY    68  61  78 SW9       29.85S
APPLETON       NOT AVBL
OSHKOSH        PTCLDY    66  59  78 S9        29.86S
FOND DU LAC    PTCLDY    68  59  73 S10       29.87F
$$

WIZ022-050-052-260700-
EAST CENTRAL WISCONSIN

CITY           SKY/WX    TMP DP  RH WIND       PRES   REMARKS
STURGEON BAY   PTCLDY    64  59  82 S9        29.87S
MANITOWOC      NOT AVBL
SHEBOYGAN      PTCLDY    65  60  84 S9        29.88F
$$

LMZ563-521-522-541>543-260700-
LAKESHORE

STATION/POSITION TIME  TEMP    WIND        PRES    VSBY  WAVE
                       AIR SEA DIR/SP/G                  HT/PER
                 (UTC) (F)     (DEG/KT/KT) (MB)    (MI)  (FT/S)
SHEBOYGAN LKSHOR 0500   68     190/ 11/ 11 1012.4R
KEWAUNEE LKSHORE 0500   55     200/  5/  7 1010.4R
NORTHPORT PIER   0500   63     160/  3/  6 1010.2S
N MID LAKE BUOY  0450   44 37  210/ 14/ 16 1010.4R         3/ 5
SISTER BAY LKSHO 0517   68     230/ 11/ 14   N/A
CHAMBERS ISLAND  0500   62     180/  6/ 11 1010.2R
MENOMINEE LKSHOR 0500   64     200/  7/  9 1010.8R
$$



USA.gov is the U.S. government's official web portal to all federal, state and local government web resources and services.